Theta_e
346 348 350 351 352 352 353 352 352 352 352 351 349 348 348 349 349 347 346 346 346 346 343 340 339 339 338 337 336 335 334 332 331 330 330 328 326 321 314 311 311 311 313 313 312 312 311 311 310 311 312 313 312 313 313 313 313 313 313 313 313 312 312
347 348 350 351 351 352 352 352 352 352 351 350 347 346 348 349 348 347 346 346 346 345 343 340 339 339 337 336 335 334 332 331 330 329 327 326 321 315 311 311 311 311 313 312 312 313 312 310 311 312 313 313 314 314 314 314 314 314 314 313 313 312 312
348 349 350 350 351 351 351 352 352 353 351 349 346 347 349 349 348 346 346 346 345 344 342 340 340 338 336 335 334 333 331 329 328 326 324 320 314 311 311 311 312 312 311 311 312 314 312 312 313 313 314 314 314 314 314 314 314 313 313 313 312 312 312
348 349 349 349 351 350 351 352 352 352 351 348 346 346 348 348 347 346 346 345 345 344 343 341 339 338 335 334 332 331 330 327 325 324 319 314 311 311 312 312 312 311 310 311 313 313 312 313 314 313 314 314 314 314 314 314 314 314 313 313 312 312 312
347 349 350 349 351 351 351 352 351 352 351 348 346 346 348 348 346 347 345 345 344 342 341 339 338 335 332 331 330 329 327 325 324 320 314 311 311 311 312 312 312 311 311 312 312 312 313 313 313 313 313 314 314 314 314 314 315 314 314 313 312 312 312
348 348 349 349 351 351 351 352 351 352 351 348 346 346 348 347 346 346 345 343 342 340 338 336 334 333 332 330 329 327 326 324 321 315 310 311 312 311 312 312 312 312 313 314 313 313 313 313 313 312 312 313 313 314 314 314 314 314 314 313 312 311 309
348 348 349 350 350 351 351 352 351 352 351 347 345 346 347 346 346 345 343 341 340 339 337 335 333 332 330 329 328 326 324 321 315 310 310 311 312 312 313 312 313 314 315 315 315 315 316 316 315 313 312 312 312 313 313 313 314 314 313 313 312 310 308
348 348 349 350 350 350 351 351 350 351 351 346 344 345 346 345 343 342 342 340 338 337 336 334 332 330 328 327 326 324 321 315 311 309 310 311 312 313 313 312 314 315 316 316 316 316 317 317 317 315 314 314 313 312 313 313 313 314 313 313 313 311 310
348 348 350 350 350 350 350 351 349 350 350 344 340 342 343 342 342 342 342 340 338 337 335 332 330 328 327 326 324 321 317 311 309 309 310 311 313 313 313 313 314 315 316 316 316 317 317 317 317 317 317 317 316 314 314 312 312 313 314 314 314 313 311
349 348 350 349 350 350 349 350 349 348 347 342 338 339 341 340 341 341 340 339 337 336 333 330 329 327 326 324 321 317 313 310 309 310 311 313 314 313 313 313 314 315 315 316 316 317 317 317 317 317 318 318 317 316 316 315 313 313 313 314 314 314 313
349 349 350 350 349 350 349 349 348 347 345 340 337 338 339 339 340 340 339 338 336 334 331 329 328 326 324 322 318 315 312 309 309 311 313 314 315 314 313 314 314 315 316 316 316 316 316 316 317 317 318 318 317 317 317 317 316 314 313 314 314 315 314
349 350 350 349 349 349 349 349 347 346 344 340 338 338 339 339 339 339 338 337 335 333 330 328 326 324 321 318 316 314 312 310 310 312 314 315 315 315 314 314 315 315 316 316 316 316 317 317 317 318 318 318 318 318 318 318 318 317 315 314 314 315 315
349 350 349 349 349 348 348 349 346 345 344 342 340 339 339 339 338 338 337 335 333 331 328 326 323 321 318 316 315 314 312 311 311 313 314 315 315 315 315 315 315 316 316 316 316 316 317 317 317 318 318 318 318 318 318 318 318 318 317 315 314 314 315
349 349 349 349 349 348 348 347 345 345 345 343 341 340 339 339 338 337 336 334 331 328 326 324 322 319 317 316 315 315 313 312 313 314 315 315 315 315 315 316 316 316 316 316 316 316 317 317 317 318 318 318 317 318 318 319 319 319 318 317 316 315 314
349 348 348 348 347 348 348 346 345 344 344 343 341 340 339 338 337 336 334 332 329 327 326 325 322 320 317 316 315 314 313 313 314 314 315 315 315 315 316 316 317 317 317 316 316 316 316 316 316 317 317 317 318 318 318 318 319 319 319 318 317 316 315
348 347 348 347 347 348 347 346 344 343 343 342 340 340 339 337 337 335 332 330 328 326 326 325 322 320 318 317 316 314 313 312 313 313 314 315 315 316 316 316 316 316 317 316 316 316 315 315 316 317 317 318 318 318 318 318 319 319 319 319 318 318 317
348 347 347 347 346 347 346 345 343 342 342 341 340 340 338 337 336 334 332 330 328 327 327 325 323 321 319 319 319 317 314 312 312 313 313 314 316 316 316 316 316 316 317 316 316 317 316 316 317 318 318 319 319 318 319 319 319 319 319 319 319 318 318
348 347 347 346 346 346 345 344 343 341 341 341 341 340 338 338 336 333 331 330 329 329 328 325 323 321 320 320 320 320 318 315 313 314 314 314 316 316 315 316 316 316 317 316 317 318 319 318 318 319 319 319 319 319 319 319 319 319 319 319 319 319 319
348 347 347 347 346 345 345 345 344 342 342 342 341 341 339 338 337 334 332 332 331 330 328 325 323 321 320 320 320 321 322 318 315 315 315 314 315 315 315 316 316 316 317 317 317 318 320 319 319 319 319 319 319 319 319 319 319 319 319 319 319 319 319
347 348 347 347 346 345 345 345 344 343 343 342 342 341 339 338 337 335 333 332 332 330 328 325 323 321 321 320 320 321 322 320 317 315 315 315 314 314 315 316 317 317 316 317 317 318 319 319 319 318 319 319 319 319 320 320 320 320 320 319 319 319 319
348 347 346 346 346 345 345 345 344 343 342 342 341 340 339 338 337 335 333 333 332 330 327 325 322 321 321 320 320 320 321 321 319 316 314 314 314 315 316 316 317 317 316 316 317 318 319 318 318 317 318 319 319 320 320 320 320 320 320 319 319 319 319
349 348 347 348 347 346 346 345 345 344 342 341 341 340 339 338 337 335 334 333 331 329 327 325 323 322 321 321 321 321 321 321 319 316 314 313 314 315 316 316 317 316 316 316 318 319 319 318 317 316 318 319 320 320 320 320 320 320 320 319 319 319 320
350 350 350 350 349 348 347 345 345 344 343 342 341 340 340 339 337 336 334 332 330 328 326 325 323 323 322 322 321 321 321 321 319 317 314 312 313 315 315 316 316 316 317 318 319 319 318 318 317 317 319 320 320 320 320 319 319 320 319 319 319 319 320
351 351 349 347 347 346 345 345 344 343 343 342 341 340 339 339 337 336 334 331 330 327 327 326 325 324 323 323 322 321 320 320 319 317 314 312 313 314 315 316 316 317 318 319 319 319 317 316 317 318 319 320 320 320 319 319 319 320 320 320 319 319 320
350 349 346 344 344 343 342 342 342 341 341 341 341 339 340 338 337 336 334 332 330 328 328 328 326 324 323 323 322 320 319 319 318 317 315 314 314 315 315 317 317 318 319 319 319 320 318 318 318 318 319 320 320 321 320 319 319 320 320 320 320 320 319
350 349 348 346 346 344 342 340 341 341 340 340 340 340 339 338 337 336 334 332 331 330 329 328 325 323 323 322 321 320 319 318 318 317 316 316 316 316 317 318 318 319 320 320 320 320 319 319 319 319 320 320 320 321 321 319 319 319 320 320 319 318 316
348 347 347 344 343 343 343 341 342 341 340 339 340 339 339 338 337 336 335 333 332 331 330 327 325 323 323 322 320 319 319 318 318 317 317 316 317 318 318 318 318 319 320 320 320 320 319 318 319 319 320 320 321 321 321 320 319 318 319 318 316 314 312
346 344 343 341 340 342 343 341 340 340 340 339 339 339 339 338 336 336 335 333 332 332 329 326 324 323 323 321 320 319 319 318 318 318 318 317 317 317 317 318 318 319 319 320 320 319 318 318 319 319 320 321 321 321 321 320 319 319 318 315 312 311 311
347 346 346 344 342 343 343 339 337 338 340 340 339 338 338 337 337 336 334 333 332 330 327 325 325 323 322 321 320 319 318 318 318 318 318 318 317 317 317 318 319 319 319 320 319 319 319 318 319 320 320 321 321 321 320 320 319 318 316 313 312 312 312
348 347 347 345 343 343 342 338 336 337 340 340 339 338 338 337 337 335 333 332 330 328 326 325 324 323 321 320 319 319 318 318 318 317 318 318 317 317 317 318 319 319 319 318 318 318 318 319 319 320 321 321 321 320 320 319 319 318 316 314 313 313 313
349 348 347 344 343 343 341 339 337 337 339 340 339 337 338 337 336 334 332 331 330 328 326 325 323 322 320 319 319 318 319 318 318 319 319 319 318 318 317 317 318 318 318 318 318 318 319 319 319 320 320 321 321 321 320 319 319 318 317 316 316 315 315
348 348 346 344 343 342 340 339 338 338 340 340 338 337 337 336 334 334 332 331 330 329 326 324 322 321 320 319 319 318 319 319 319 319 320 321 321 321 320 319 318 318 318 317 317 318 319 319 320 320 321 322 321 321 320 319 318 318 318 318 317 317 316
348 347 345 344 343 342 340 339 339 339 340 340 337 336 335 334 333 333 333 332 331 328 325 323 321 320 320 320 319 318 319 319 320 320 320 321 321 321 320 318 317 316 317 317 317 318 319 320 321 321 322 321 320 319 318 316 315 315 317 318 318 318 318
348 345 344 343 344 343 341 341 341 340 340 338 337 335 333 333 333 333 333 331 329 326 324 322 321 320 320 320 320 318 317 318 318 319 319 318 318 318 317 316 316 316 316 317 318 319 320 321 322 322 321 321 319 319 317 315 313 313 314 316 317 318 317
346 344 342 342 342 341 341 341 341 341 339 337 336 335 334 334 334 333 332 329 327 324 323 322 321 320 320 320 320 318 317 316 317 317 317 317 317 317 317 317 318 318 319 320 320 320 321 322 322 322 322 321 321 321 319 316 314 314 314 314 315 315 315
344 342 341 340 340 340 341 340 340 339 338 337 336 336 335 333 332 331 329 327 325 324 323 322 321 320 320 319 319 319 317 316 316 316 317 317 318 318 318 319 319 320 321 321 321 322 322 322 322 322 322 322 322 322 321 318 316 316 316 316 315 315 315
343 340 339 338 339 339 340 340 338 337 337 336 335 334 332 331 330 328 327 326 325 323 322 322 321 320 319 319 319 318 316 315 316 317 318 319 319 319 320 321 321 321 321 322 322 322 322 322 322 322 322 322 322 321 321 319 318 318 319 319 319 319 318
343 340 338 338 338 338 339 339 336 334 334 333 331 330 329 328 327 327 326 326 325 323 322 322 321 319 319 318 317 316 316 316 317 318 319 320 320 321 322 322 322 322 321 322 322 322 322 322 322 322 322 322 322 322 321 320 320 320 320 320 321 321 321
Wind_Speed
29 31 33 34 36 36 37 37 36 34 30 26 24 23 23 24 24 20 17 16 17 16 16 16 15 13 12 12 11 9 7 6 5 5 5 5 6 6 4 2 1 5 9 10 9 9 8 7 9 10 12 13 14 14 14 14 15 15 15 15 16 16 17
30 31 32 34 35 36 36 37 36 34 32 28 24 23 25 25 22 18 18 17 16 16 17 17 14 12 11 12 10 8 6 6 6 5 6 6 6 3 1 2 5 8 10 9 9 9 8 7 8 10 11 12 12 12 12 12 13 14 14 13 14 15 15
29 29 31 33 35 36 36 36 35 35 33 28 24 24 26 25 20 17 18 17 17 18 17 15 12 10 11 12 9 8 7 6 6 5 5 5 4 3 4 6 9 9 9 9 9 9 9 10 11 11 12 12 11 10 10 10 12 14 14 14 15 15 15
27 28 30 31 34 35 35 36 37 36 33 28 24 24 26 24 19 18 19 17 16 17 16 14 11 10 11 11 9 8 7 6 6 4 5 4 3 6 7 9 11 10 11 11 10 9 10 11 12 13 12 12 11 9 9 11 13 15 15 15 15 15 15
27 27 29 31 33 34 35 36 38 37 34 30 25 25 25 22 19 20 19 16 14 15 14 13 12 12 11 11 9 8 6 6 5 4 5 5 6 8 9 12 13 14 16 16 14 13 12 11 12 13 12 12 12 10 10 12 14 15 16 16 15 15 15
27 28 28 31 33 34 35 36 37 38 36 31 26 25 25 22 20 21 18 15 14 14 14 14 13 12 12 11 9 7 7 7 6 5 6 8 9 9 12 15 17 19 20 20 19 18 17 15 15 14 13 12 11 10 11 12 14 15 16 16 15 15 15
28 28 28 30 32 33 34 35 36 36 36 32 26 24 26 23 21 20 16 13 14 14 14 14 13 12 11 9 7 6 7 7 7 8 10 11 11 11 14 18 20 20 19 19 19 19 18 18 18 16 15 13 11 11 11 12 13 14 15 15 15 16 17
27 28 28 29 32 33 33 34 34 36 36 33 27 25 25 22 19 18 15 14 14 14 14 13 12 11 9 7 6 7 8 8 8 10 12 13 13 12 16 19 20 17 15 15 16 15 15 16 16 16 15 15 14 13 13 12 12 13 13 14 15 16 18
25 26 27 29 31 32 32 33 34 35 36 34 29 26 24 20 18 18 17 16 16 15 13 12 10 9 7 7 8 9 8 8 11 13 14 16 16 16 18 19 18 16 13 13 13 12 12 13 14 14 13 14 15 16 15 14 13 12 12 12 14 15 17
24 26 28 29 30 31 31 32 33 34 35 31 27 25 22 19 19 20 19 18 16 14 12 11 9 8 8 9 9 8 8 10 13 15 17 18 18 18 19 19 16 14 12 11 11 10 10 11 12 12 12 12 13 15 15 15 14 13 12 12 12 14 15
24 25 28 29 30 31 31 32 33 33 33 29 24 21 21 21 22 21 19 18 15 13 11 10 9 9 9 9 9 8 9 12 15 17 19 19 18 18 18 17 14 12 11 10 9 8 9 10 10 10 10 11 12 12 13 15 15 14 13 12 12 12 13
23 25 29 30 31 32 31 32 33 32 32 28 23 21 21 22 23 21 17 15 13 12 12 11 10 9 9 9 9 9 10 13 16 19 20 19 18 17 16 14 12 10 10 8 7 7 7 8 8 8 9 10 11 11 12 13 14 14 14 13 12 11 11
24 25 29 30 30 31 31 32 33 32 31 27 22 20 20 21 21 19 17 16 15 13 13 13 11 10 10 10 9 10 12 15 17 20 20 20 18 16 14 12 10 8 7 6 6 5 5 6 7 8 8 9 10 10 10 11 12 13 13 14 13 12 11
25 26 28 28 29 30 30 31 31 30 29 27 23 20 20 20 19 18 18 18 17 17 15 14 13 12 10 10 10 10 13 16 18 20 20 18 16 14 12 10 9 7 5 4 4 4 4 5 7 7 8 9 9 9 9 10 10 11 12 13 14 13 12
26 27 28 28 28 29 29 30 30 29 29 28 23 21 22 22 21 20 19 19 20 19 16 15 14 13 11 10 9 11 14 17 18 19 19 17 15 13 12 9 7 5 4 4 3 3 4 5 6 7 8 8 8 8 8 9 9 10 11 12 13 14 14
27 28 28 29 29 29 29 30 30 30 30 28 23 22 24 24 22 22 21 22 21 19 17 16 14 13 12 10 9 10 12 14 16 18 17 16 14 12 11 8 6 5 3 2 2 2 3 4 5 6 7 7 7 8 8 8 8 8 10 11 12 13 14
28 28 28 28 29 29 29 30 31 32 31 27 24 23 25 24 23 22 22 23 22 19 17 16 14 14 13 11 9 8 8 11 14 14 14 14 13 12 10 8 6 6 4 2 1 2 3 2 4 6 6 6 7 8 7 6 6 7 8 10 11 12 14
28 29 29 29 30 30 30 31 32 32 31 27 25 25 25 25 24 24 24 24 22 18 17 16 14 15 14 12 11 8 4 7 11 12 12 13 13 12 10 9 7 6 5 3 1 2 3 3 4 5 5 5 5 5 5 5 5 6 7 9 10 12 13
29 29 30 30 31 32 32 32 32 32 30 27 25 25 24 24 25 25 24 23 21 19 18 16 16 16 15 13 12 8 4 2 7 10 11 12 12 12 12 11 9 8 6 4 2 1 2 3 4 5 5 5 5 4 4 4 4 5 6 7 9 11 12
28 29 29 30 31 32 32 32 31 30 28 25 24 24 23 24 25 24 22 22 21 20 19 18 17 16 14 14 13 9 4 2 3 9 11 11 12 13 13 13 11 10 8 6 4 2 2 4 6 6 6 7 6 6 6 6 6 6 7 7 8 10 11
28 29 30 30 31 31 32 32 31 29 29 28 26 25 25 26 25 23 21 22 22 21 20 19 18 16 14 13 11 9 4 2 1 6 10 11 12 14 14 14 13 12 10 8 5 3 4 5 6 6 6 7 8 8 9 8 7 8 8 7 8 10 11
29 30 30 29 29 29 30 31 31 30 30 30 29 27 25 25 25 23 22 23 24 23 21 19 18 16 14 12 10 8 4 2 2 5 8 11 14 16 15 14 14 12 10 6 3 3 4 6 6 5 5 7 8 10 10 9 8 9 9 8 8 9 11
24 26 25 25 25 25 25 29 31 30 30 30 29 28 25 24 24 24 24 25 26 24 22 19 17 15 13 12 11 10 6 3 4 5 7 11 15 17 16 15 14 11 7 4 2 3 5 6 5 4 5 6 7 9 9 8 8 9 9 9 9 10 11
21 23 23 23 24 25 26 30 32 31 30 30 30 28 26 25 26 26 25 26 26 24 22 19 17 16 15 12 12 12 9 6 6 6 7 11 15 16 16 15 13 9 5 3 2 3 4 4 4 4 5 6 7 9 10 9 8 8 9 10 10 10 10
21 22 21 20 21 23 26 29 30 28 29 30 29 28 26 26 27 27 26 25 24 23 22 19 18 18 15 12 12 13 12 10 8 8 8 10 13 14 15 14 11 8 5 4 3 2 3 4 4 4 4 6 8 9 11 11 9 8 9 9 10 10 10
19 21 21 20 19 18 19 23 26 27 29 29 28 26 26 27 27 27 25 24 22 22 21 19 18 16 13 12 14 14 14 12 10 9 10 11 11 12 13 12 10 8 6 5 4 4 4 4 5 5 5 6 8 10 11 11 10 9 8 8 9 10 9
16 17 17 18 18 15 15 19 23 25 26 26 25 26 27 27 27 26 25 24 22 21 19 17 16 14 13 14 15 14 14 13 12 11 11 12 12 12 12 11 10 8 6 6 5 6 6 6 6 6 7 7 9 10 11 11 10 9 8 7 8 8 7
12 11 12 12 13 14 16 19 23 24 24 23 25 26 25 26 27 26 25 25 22 18 16 16 15 14 14 15 14 13 13 14 13 11 10 11 12 12 12 11 10 8 7 6 6 7 8 8 7 7 8 9 10 11 11 11 10 9 8 6 7 7 7
9 10 11 11 13 16 17 19 22 23 23 22 23 24 24 24 26 25 25 25 20 16 15 16 15 15 15 14 13 13 12 12 13 12 11 10 11 12 11 10 9 8 8 7 7 8 9 9 8 8 9 10 11 11 11 11 9 9 8 7 6 7 7
9 10 12 12 12 14 15 16 20 23 22 20 21 22 22 23 24 23 23 21 17 15 17 16 14 15 15 13 13 13 11 11 13 12 11 10 10 10 11 10 10 9 9 9 9 10 10 10 9 9 11 11 12 12 11 10 10 9 8 8 8 8 9
10 9 9 9 10 11 12 16 20 22 22 21 21 21 21 21 21 19 18 17 15 16 17 16 15 16 15 12 12 12 12 12 13 12 10 10 9 9 10 10 10 10 9 10 10 11 11 10 10 11 12 13 13 12 11 10 10 10 9 9 10 10 10
10 7 7 8 9 11 14 18 20 21 21 20 20 21 20 19 17 14 13 14 15 16 17 16 16 16 14 12 11 11 11 13 13 12 10 10 9 9 10 11 11 11 10 11 11 11 11 11 11 12 13 14 15 13 11 10 10 11 11 11 12 12 11
8 8 9 9 10 12 17 19 19 20 21 21 21 22 21 18 14 10 11 13 14 15 17 16 15 14 13 12 11 10 12 14 14 12 11 10 10 11 11 11 11 11 11 11 11 11 11 12 12 13 14 15 14 12 11 11 10 10 10 11 13 13 13
8 9 9 10 12 14 15 16 16 17 19 21 22 19 15 13 11 10 12 13 13 15 17 16 13 12 12 12 10 10 11 13 13 12 10 9 9 9 9 8 9 9 9 9 9 10 11 12 13 13 13 14 13 12 12 11 9 9 9 10 12 13 13
10 10 10 11 12 12 11 12 14 14 15 16 15 12 10 11 12 12 13 14 14 15 16 15 13 12 12 12 11 9 9 10 11 11 9 8 6 6 6 6 7 8 8 7 8 9 11 12 13 13 13 13 14 14 14 13 10 8 9 10 11 12 13
12 12 12 11 11 10 11 12 12 11 10 10 11 12 12 13 14 14 15 15 15 15 16 15 12 11 12 12 11 10 8 9 10 10 8 7 6 5 5 6 7 8 8 8 8 9 12 13 14 13 13 15 15 15 15 15 12 10 10 12 12 13 14
13 13 13 12 11 10 11 11 9 10 11 12 13 14 15 15 15 15 15 15 15 15 15 14 12 11 11 12 12 10 9 10 11 10 8 7 6 5 5 6 7 8 9 10 10 10 12 13 14 14 14 16 16 16 15 15 14 13 13 14 14 14 15
13 13 13 12 11 10 10 11 12 15 16 16 16 16 16 15 14 13 13 14 14 15 14 13 11 10 11 11 11 11 12 13 12 10 8 7 5 4 5 6 6 7 8 9 10 12 13 14 15 16 16 16 17 17 17 16 16 16 16 16 16 16 16
Wind_Direction
177 181 183 184 184 184 185 188 189 190 189 186 187 193 201 205 202 194 192 197 203 201 191 186 182 186 196 196 195 201 211 224 232 242 255 268 279 291 298 294 34 58 62 59 58 67 75 76 64 56 60 65 68 68 63 59 57 56 57 52 49 49 45
174 178 180 181 183 182 184 187 187 185 184 183 188 194 198 204 204 196 191 193 199 201 194 190 189 190 194 194 196 202 211 221 226 238 254 268 277 272 207 135 80 73 69 62 60 67 73 78 70 59 61 68 70 64 52 46 44 44 48 45 42 43 39
171 174 177 180 182 182 182 183 182 183 185 182 187 197 198 201 202 198 197 194 195 199 198 197 196 190 192 196 200 205 209 220 225 233 255 269 263 187 148 108 88 80 74 70 62 62 72 79 75 65 61 62 64 61 47 39 38 38 40 36 33 33 31
169 173 176 179 181 181 180 180 179 182 185 183 190 201 200 198 198 199 201 197 197 204 205 202 192 183 192 200 201 205 211 219 221 235 258 254 193 149 126 103 94 87 81 79 73 73 78 78 73 64 57 52 50 47 40 36 36 35 34 30 27 28 26
169 172 174 176 178 179 178 178 180 182 184 186 193 198 197 194 195 198 201 197 200 210 206 196 185 181 190 196 199 206 210 217 227 241 239 198 156 137 118 105 100 94 88 84 79 78 77 73 66 58 51 45 38 35 34 34 34 31 28 25 23 25 26
169 172 174 174 176 177 176 177 181 184 186 188 189 192 193 192 193 197 200 199 200 203 196 186 182 186 190 193 206 209 200 213 227 214 191 167 149 135 120 112 106 98 90 83 79 77 75 71 64 56 51 43 33 32 35 35 32 29 26 24 23 25 30
167 171 172 174 175 175 176 178 182 185 187 188 188 189 188 187 191 197 199 198 196 196 193 187 184 191 194 196 212 211 196 206 205 180 167 159 154 143 128 121 113 102 93 86 83 79 75 72 66 62 58 52 44 40 39 36 32 28 27 27 24 28 38
166 170 171 173 174 174 176 179 181 183 187 186 182 183 184 185 195 200 197 195 195 193 193 190 189 193 195 196 202 201 195 189 173 161 158 158 157 149 136 129 120 109 100 92 87 82 76 71 68 64 60 58 56 51 45 41 37 32 30 29 25 28 41
166 172 173 172 171 172 176 179 181 183 185 184 178 178 181 186 196 200 198 196 195 193 189 188 191 194 194 195 194 192 183 165 157 155 154 153 153 149 143 136 127 116 107 97 91 85 77 70 67 62 56 54 53 53 51 48 44 40 32 28 24 24 35
164 169 173 171 170 173 177 181 184 184 185 183 179 178 179 183 192 196 196 193 190 189 186 184 186 187 188 192 190 181 163 154 154 154 152 152 151 149 147 142 133 121 113 106 98 89 79 71 66 59 51 45 43 46 49 47 44 41 32 25 21 19 25
163 164 167 168 171 176 181 184 186 186 183 178 173 177 182 185 190 192 192 189 186 184 181 177 176 177 184 190 185 168 155 155 156 154 153 154 152 150 149 146 138 127 121 116 105 90 77 68 61 51 41 34 32 34 40 41 39 36 32 25 18 14 16
164 163 165 169 173 179 184 187 189 187 182 176 171 176 182 183 186 189 190 190 187 182 176 170 167 171 179 184 177 164 157 159 158 155 155 155 153 152 150 147 141 133 128 122 106 86 71 61 49 37 26 21 19 21 27 32 32 30 30 26 20 14 10
166 164 168 171 175 180 184 187 188 186 184 182 176 173 176 179 183 187 189 186 180 177 171 162 162 167 170 173 172 164 159 159 158 156 156 156 156 156 153 151 150 144 137 126 103 79 65 51 31 19 12 4 4 9 14 19 23 24 25 25 22 16 9
166 166 170 174 178 182 185 186 187 186 189 188 179 171 175 180 183 185 185 180 173 171 166 158 159 160 160 166 169 163 159 157 155 156 157 159 160 160 156 152 151 148 141 124 101 73 49 26 5 358 355 350 350 357 2 6 13 17 18 20 20 16 12
167 169 173 179 184 187 189 189 188 189 192 188 177 174 180 183 184 183 180 176 170 166 162 157 155 152 151 159 163 163 164 162 159 161 163 165 165 161 154 146 139 133 122 103 80 47 14 348 335 335 340 341 345 350 354 358 3 8 12 14 14 12 11
171 174 178 184 189 193 195 194 191 191 191 184 177 182 186 183 181 180 178 173 168 165 162 158 153 148 147 146 146 159 171 173 173 173 172 171 170 166 159 153 145 137 122 100 58 8 342 324 320 327 332 336 342 345 347 351 356 2 5 9 9 5 4
176 180 185 190 193 195 196 194 191 191 188 181 182 190 189 183 179 179 178 172 168 168 166 161 155 151 147 137 129 140 164 177 179 178 176 173 173 173 173 172 166 155 151 148 80 20 0 335 322 321 321 325 332 337 343 348 355 1 1 0 2 1 359
183 186 190 193 194 193 193 193 192 191 186 183 189 194 192 186 182 181 180 174 171 172 170 167 164 159 151 141 131 120 124 167 174 176 178 177 177 182 184 183 180 171 173 184 142 53 26 355 320 307 300 304 318 332 341 346 352 359 355 349 350 354 356
191 193 194 196 195 193 194 197 196 194 189 188 193 196 195 192 188 183 180 177 175 177 176 174 171 167 160 152 143 121 79 137 174 178 186 188 188 193 191 187 189 186 187 196 187 118 10 344 323 309 297 293 303 324 337 341 340 341 342 339 338 343 349
197 198 197 198 198 196 198 199 199 196 193 192 195 197 196 198 195 186 180 179 180 182 182 178 173 173 168 161 156 145 99 37 174 182 194 201 196 191 189 189 192 193 197 201 203 221 300 320 316 312 303 296 300 316 330 337 329 320 322 327 328 332 339
201 201 200 200 201 201 200 201 200 197 194 195 197 196 196 199 196 186 183 186 186 186 186 181 176 177 175 169 168 163 147 12 299 187 196 204 196 187 188 191 194 197 202 205 211 246 296 308 303 302 301 300 304 312 321 328 323 313 310 314 320 324 330
204 204 205 205 205 205 203 202 201 197 194 196 198 196 198 200 195 190 192 194 191 189 187 183 180 181 181 183 186 180 179 272 271 196 195 202 196 189 188 192 196 200 202 206 222 271 303 304 294 293 303 308 310 312 317 322 319 311 306 306 310 317 323
210 207 208 208 208 209 206 203 202 199 196 198 199 198 198 198 195 196 199 196 192 189 187 186 187 188 191 199 200 192 195 246 248 210 202 202 196 193 194 194 196 197 196 199 239 291 303 296 283 289 307 315 318 318 318 320 318 309 304 304 307 311 317
220 213 210 208 208 209 205 202 201 200 199 201 200 199 199 198 196 198 201 198 193 191 191 192 194 196 200 206 205 199 201 216 223 214 207 200 195 195 197 195 191 190 190 202 250 302 307 294 288 297 304 314 325 326 321 318 314 306 303 306 308 309 313
220 213 208 205 209 211 208 205 202 201 203 204 201 199 201 202 200 200 202 199 194 194 199 201 200 199 202 206 205 204 203 202 205 204 195 188 185 185 189 191 190 187 191 212 248 288 303 302 305 306 304 315 329 332 325 317 311 306 305 307 306 305 308
216 214 210 206 206 209 211 212 209 205 204 205 202 201 203 204 203 204 204 200 196 200 206 207 200 198 204 208 205 203 203 202 202 196 185 178 176 178 184 191 194 193 201 223 247 266 284 297 303 307 316 324 330 334 329 319 311 309 308 303 303 305 308
212 213 216 213 208 203 203 213 218 213 208 207 205 203 204 205 204 205 207 203 199 204 210 204 195 197 205 206 201 200 203 203 199 193 188 185 184 186 192 198 201 204 217 237 251 267 282 290 294 302 317 326 328 331 328 318 310 310 309 303 302 307 313
201 210 220 221 219 210 201 206 216 216 211 210 208 204 204 205 204 205 207 204 200 203 204 194 190 198 203 203 202 200 198 198 195 193 195 198 198 197 198 203 208 214 228 243 257 275 286 287 287 296 312 321 325 325 320 309 304 307 304 298 297 303 312
214 226 226 222 220 215 207 208 215 213 209 210 210 206 205 205 205 206 206 201 196 193 191 187 188 197 201 204 205 199 194 197 199 198 201 206 208 204 200 204 216 224 233 245 258 276 286 285 285 293 306 316 323 326 318 301 294 298 295 285 286 297 305
225 224 223 219 213 212 212 214 214 210 207 208 209 207 206 207 207 206 202 196 188 182 183 185 188 194 199 203 203 201 202 204 200 198 202 208 213 213 209 212 224 231 241 251 261 273 280 281 283 292 303 312 320 328 325 304 286 285 284 278 280 288 296
218 217 222 215 204 207 214 214 212 207 203 204 205 204 204 208 209 203 194 189 184 181 183 186 189 194 198 198 198 204 212 208 198 197 203 208 216 223 224 227 234 238 248 258 263 270 275 277 283 292 302 309 313 320 326 312 288 277 276 277 279 284 291
210 204 199 192 188 195 204 207 208 204 200 202 204 202 201 205 207 198 188 187 185 182 184 187 190 194 198 198 198 203 207 206 204 203 205 211 223 232 235 239 243 247 253 258 260 264 268 274 285 295 302 307 309 310 313 309 293 277 271 274 279 285 290
195 174 173 182 187 193 199 202 205 205 203 202 202 201 199 198 196 191 189 187 182 181 186 189 192 196 200 200 201 202 204 205 207 207 211 220 229 234 237 240 244 248 251 252 254 260 267 277 288 296 301 306 308 305 303 303 300 291 281 276 278 281 284
158 152 165 182 191 197 201 204 207 209 209 206 201 197 193 188 186 187 186 182 182 187 190 191 194 199 201 200 202 207 205 201 202 206 213 220 224 228 234 241 246 250 250 251 257 265 273 283 290 295 300 303 303 302 300 299 301 301 295 286 280 279 280
147 150 160 172 185 196 202 204 206 209 211 206 197 184 174 176 180 181 179 181 188 193 193 193 196 199 199 201 207 210 202 196 199 202 203 204 211 220 227 233 242 250 253 257 264 272 281 287 290 295 299 298 295 295 294 294 294 295 291 288 287 287 286
150 156 163 166 175 192 205 208 205 199 193 185 174 165 166 171 175 177 179 185 192 195 195 197 197 196 198 202 207 209 202 192 192 191 188 191 199 208 217 227 241 255 266 271 271 274 279 282 286 292 294 292 292 291 287 285 285 285 284 286 289 290 290
160 162 165 166 171 187 205 207 191 173 164 159 157 162 167 170 174 177 181 187 193 196 198 200 201 200 201 202 203 203 194 184 183 184 185 189 196 210 231 246 253 258 268 277 281 282 283 283 286 290 290 289 291 291 285 280 279 281 282 283 284 286 287
169 167 165 167 171 180 188 178 160 154 155 154 157 164 168 169 175 180 183 187 193 198 202 206 209 207 202 196 193 190 185 182 183 186 187 192 207 234 257 269 268 263 265 274 284 293 296 295 293 293 290 289 289 289 287 282 280 280 280 280 281 283 285